Voltar ao catálogo

CZ-6A DEB

AtivoSSO
NORAD 54898·DEBRIS·🇨🇳 China

Lançado Nov 11, 2022 de Taiyuan Satellite Launch Center

Loading…

Próximas Passagens (próximas 24 horas)

TLE

AtualizadoSource: Space-Track

Época: Sep 13, 2026, 21:14 UTC

1 54898U 22151QK  26256.88494416  .00000526  00000-0  33257-3 0  9996
2 54898  98.8597 243.6819 0080708 138.8150 221.9147 14.06713936194116

Acompanhe CZ-6A DEB em tempo real com AllMySat

Download on the App Store